Regional Weather Roundup
Issued by NWS Albany, NY

Home | Current Version | Previous Version | Text Only | Print | Product List | Glossary On
Versions: 1 2 3 4 5 6 7 8 9 10 11 12 13 14 15 16 17 18 19 20 21 22 23 24 25 26 27 28
000
ASUS41 KALY 251410
RWRALY

NEW YORK STATE HOURLY WEATHER ROUNDUP
NATIONAL WEATHER SERVICE ALBANY NY
1000 AM EDT SAT OCT 25 2014

NOTE: "FAIR" INDICATES FEW OR NO CLOUDS BELOW 12,000 FEET WITH NO
SIGNIFICANT WEATHER AND/OR NO OBSTRUCTIONS TO VISIBILITY.

NYZ032-033-038>043-046>054-057>066-NYZ062>081-251500-
EAST


CITY           SKY/WX    TMP DP  RH WIND       PRES   REMARKS
ALBANY         MOSUNNY   52  42  69 W6        29.82F
GLENS FALLS    CLOUDY    42  41  96 S5        29.80F FOG
POUGHKEEPSIE   SUNNY     51  44  77 CALM      29.83F
NEWBURGH       SUNNY     52  46  82 SW7       29.84F
MONTGOMERY     SUNNY     54  40  59 SW8       29.83F
WHITE PLAINS   SUNNY     54  41  61 VRB5      29.83S
ISLIP          MOSUNNY   56  43  61 NW6       29.82F
NEW YORK CITY  MOSUNNY   55  39  54 W10       29.85S
CENTRAL PARK   SUNNY     54  38  54 CALM      29.87F
$$

NYZ005>009-017-018-044>046-055-056-251500-
CENTRAL


CITY           SKY/WX    TMP DP  RH WIND       PRES   REMARKS
FULTON         CLOUDY    52  46  80 S8        29.79F
SYRACUSE       CLOUDY    55  47  74 SW7       29.80F
ROME           CLOUDY    47  43  86 CALM      29.83F
ELMIRA         CLOUDY    49  41  74 SW6       29.85F
BINGHAMTON     CLOUDY    46  38  73 W7        29.84F
MONTICELLO     SUNNY     48  39  71 NW9       29.85F
$$

NYZ026>034-041>043-251500-
NORTH


CITY           SKY/WX    TMP DP  RH WIND       PRES   REMARKS
WATERTOWN      CLOUDY    52  45  77 S6        29.76F
FORT DRUM      NOT AVBL
MASSENA        CLOUDY    48  42  80 SW10      29.74F
SARANAC LAKE   CLOUDY    42  39  89 SW7       29.73F
PLATTSBURGH    SUNNY     50  44  80 SE7       29.75F
$$

NYZ001>004-010>016-019>021-251500-
WEST


CITY           SKY/WX    TMP DP  RH WIND       PRES   REMARKS
NIAGARA FALLS  PTSUNNY   58  52  80 SW14G24   29.76F
BUFFALO        PTSUNNY   57  47  69 SW13      29.78F
DUNKIRK        PTSUNNY   56  46  69 S9G22     29.80F
JAMESTOWN      PTSUNNY   52  43  71 SW9       29.85S
WELLSVILLE     PTSUNNY   52  41  66 SW10      29.85F
ROCHESTER      MOSUNNY   55  47  74 SW12      29.78F
PENN YAN       PTSUNNY   54  44  69 SW9       29.82F
$$

             KEY
       WCI = WIND CHILL INDEX
       VSB = VISIBILITY
       HX  = HEAT INDEX
$$



USA.gov is the U.S. government's official web portal to all federal, state and local government web resources and services.